"Sample Date","Sample Time","Sample Value","Units","Flow Rate","Sample Interval","Number Channels","Micron Size 0","Counts/Channel 0","Micron Size 1","Counts/Channel 1","Micron Size 2","Counts/Channel 2","Micron Size 3","Counts/Channel 3","Micron Size 4","Counts/Channel 4","Micron Size 5","Counts/Channel 5","Micron Size 6","Counts/Channel 6","Micron Size 7","Counts/Channel 7","Micron Size 8","Counts/Channel 8","Micron Size 9","Counts/Channel 9","Micron Size 10","Counts/Channel 10","Micron Size 11","Counts/Channel 11","Micron Size 12","Counts/Channel 12","Micron Size 13","Counts/Channel 13","Micron Size 14","Counts/Channel 14","Micron Size 15","Counts/Channel 15","Micron Size 16","Counts/Channel 16","Micron Size 17","Counts/Channel 17","Micron Size 18","Counts/Channel 18","Micron Size 19","Counts/Channel 19","Micron Size 20","Counts/Channel 20","Micron Size 21","Counts/Channel 21","Micron Size 22","Counts/Channel 22","Micron Size 23","Counts/Channel 23","Micron Size 24","Counts/Channel 24","Micron Size 25","Counts/Channel 25","Micron Size 26","Counts/Channel 26","Micron Size 27","Counts/Channel 27","Micron Size 28","Counts/Channel 28","Micron Size 29","Counts/Channel 29","Micron Size 30","Counts/Channel 30","Micron Size 31","Counts/Channel 31"
"04/04/08","16:00:04",25170.000,"cc",28351.080,6.00,6,0.100,22655.000,0.200,1010.000,0.300,544.000,0.500,717.000,1.000,244.000,5.000,0
"04/04/08","16:00:10",25269.000,"cc",28348.152,6.00,6,0.100,22829.000,0.200,940.000,0.300,538.000,0.500,677.000,1.000,285.000,5.000,0
"04/04/08","16:00:16",25247.000,"cc",28362.506,6.00,6,0.100,22743.000,0.200,956.000,0.300,592.000,0.500,690.000,1.000,266.000,5.000,0
"04/04/08","16:00:22",24993.000,"cc",28379.879,6.00,6,0.100,22568.000,0.200,985.000,0.300,523.000,0.500,655.000,1.000,262.000,5.000,0
"04/04/08","16:00:28",25460.000,"cc",28231.500,6.00,6,0.100,23051.000,0.200,990.000,0.300,519.000,0.500,666.000,1.000,234.000,5.000,0
"04/04/08","16:00:34",24679.000,"cc",28252.789,6.00,6,0.100,22409.000,0.200,938.000,0.300,525.000,0.500,592.000,1.000,215.000,5.000,0
"04/04/08","16:00:40",24818.000,"cc",28343.914,6.00,6,0.100,22620.000,0.200,952.000,0.300,474.000,0.500,557.000,1.000,215.000,5.000,0
"04/04/08","16:00:46",24807.000,"cc",28304.566,6.00,6,0.100,22699.000,0.200,843.000,0.300,480.000,0.500,573.000,1.000,212.000,5.000,0
"04/04/08","16:00:52",24746.000,"cc",28346.512,6.00,6,0.100,22416.000,0.200,983.000,0.300,520.000,0.500,620.000,1.000,207.000,5.000,0
"04/04/08","16:00:58",25044.000,"cc",28343.691,6.00,6,0.100,22684.000,0.200,957.000,0.300,517.000,0.500,643.000,1.000,243.000,5.000,0
"04/04/08","16:01:04",24823.000,"cc",28311.197,6.00,6,0.100,22724.000,0.200,856.000,0.300,486.000,0.500,566.000,1.000,191.000,5.000,0
"04/04/08","16:01:10",24838.000,"cc",28312.498,6.00,6,0.100,22569.000,0.200,914.000,0.300,521.000,0.500,618.000,1.000,216.000,5.000,0
"04/04/08","16:01:16",24902.000,"cc",28293.580,6.00,6,0.100,22552.000,0.200,960.000,0.300,555.000,0.500,607.000,1.000,228.000,5.000,0
"04/04/08","16:01:22",24896.000,"cc",28308.824,6.00,6,0.100,22793.000,0.200,832.000,0.300,457.000,0.500,604.000,1.000,210.000,5.000,0
"04/04/08","16:01:28",24618.000,"cc",28340.453,6.00,6,0.100,22589.000,0.200,847.000,0.300,459.000,0.500,501.000,1.000,222.000,5.000,0
"04/04/08","16:01:34",25092.000,"cc",28336.117,6.00,6,0.100,22946.000,0.200,912.000,0.300,481.000,0.500,544.000,1.000,209.000,5.000,0
"04/04/08","16:01:40",24608.000,"cc",28292.143,6.00,6,0.100,22323.000,0.200,917.000,0.300,488.000,0.500,633.000,1.000,247.000,5.000,0
"04/04/08","16:01:46",24873.000,"cc",28263.670,6.00,6,0.100,22749.000,0.200,886.000,0.300,477.000,0.500,573.000,1.000,188.000,5.000,0
"04/04/08","16:01:52",24956.000,"cc",28338.565,6.00,6,0.100,22875.000,0.200,858.000,0.300,463.000,0.500,574.000,1.000,186.000,5.000,0
"04/04/08","16:01:58",24854.000,"cc",28304.490,6.00,6,0.100,22836.000,0.200,831.000,0.300,439.000,0.500,535.000,1.000,213.000,5.000,0
"04/04/08","16:02:04",24550.000,"cc",28279.490,6.00,6,0.100,22483.000,0.200,864.000,0.300,470.000,0.500,522.000,1.000,211.000,5.000,0
"04/04/08","16:02:10",24504.000,"cc",28263.346,6.00,6,0.100,22440.000,0.200,883.000,0.300,446.000,0.500,554.000,1.000,181.000,5.000,0
"04/04/08","16:02:16",24585.000,"cc",28375.424,6.00,6,0.100,22464.000,0.200,915.000,0.300,467.000,0.500,534.000,1.000,205.000,5.000,0
"04/04/08","16:02:22",24459.000,"cc",28367.949,6.00,6,0.100,22478.000,0.200,828.000,0.300,467.000,0.500,509.000,1.000,177.000,5.000,0
"04/04/08","16:02:28",24638.000,"cc",28253.164,6.00,6,0.100,22518.000,0.200,895.000,0.300,448.000,0.500,554.000,1.000,223.000,5.000,0
"04/04/08","16:02:34",24505.000,"cc",28308.434,6.00,6,0.100,22454.000,0.200,877.000,0.300,425.000,0.500,552.000,1.000,197.000,5.000,0
"04/04/08","16:02:40",24713.000,"cc",28327.617,6.00,6,0.100,22636.000,0.200,859.000,0.300,447.000,0.500,572.000,1.000,199.000,5.000,0
"04/04/08","16:02:46",24755.000,"cc",28326.637,6.00,6,0.100,22661.000,0.200,913.000,0.300,441.000,0.500,551.000,1.000,189.000,5.000,0
"04/04/08","16:02:52",24289.000,"cc",28369.600,6.00,6,0.100,22266.000,0.200,840.000,0.300,428.000,0.500,536.000,1.000,219.000,5.000,0
"04/04/08","16:02:58",24480.000,"cc",28300.088,6.00,6,0.100,22419.000,0.200,869.000,0.300,432.000,0.500,553.000,1.000,207.000,5.000,0
"04/04/08","16:03:04",24325.000,"cc",28256.781,6.00,6,0.100,22395.000,0.200,816.000,0.300,406.000,0.500,522.000,1.000,186.000,5.000,0
"04/04/08","16:03:10",24634.000,"cc",28353.984,6.00,6,0.100,22577.000,0.200,848.000,0.300,478.000,0.500,519.000,1.000,212.000,5.000,0
"04/04/08","16:03:16",24754.000,"cc",28318.807,6.00,6,0.100,22652.000,0.200,914.000,0.300,459.000,0.500,519.000,1.000,210.000,5.000,0
"04/04/08","16:03:22",24702.000,"cc",28316.998,6.00,6,0.100,22652.000,0.200,875.000,0.300,416.000,0.500,545.000,1.000,214.000,5.000,0
"04/04/08","16:03:28",24687.000,"cc",28330.150,6.00,6,0.100,22581.000,0.200,848.000,0.300,460.000,0.500,578.000,1.000,220.000,5.000,0
"04/04/08","16:03:34",24322.000,"cc",28399.488,6.00,6,0.100,22390.000,0.200,850.000,0.300,433.000,0.500,471.000,1.000,178.000,5.000,0
"04/04/08","16:03:40",24611.000,"cc",28280.830,6.00,6,0.100,22493.000,0.200,882.000,0.300,484.000,0.500,536.000,1.000,216.000,5.000,0
"04/04/08","16:03:46",24623.000,"cc",28335.215,6.00,6,0.100,22577.000,0.200,885.000,0.300,468.000,0.500,498.000,1.000,195.000,5.000,0
"04/04/08","16:03:52",24533.000,"cc",28329.369,6.00,6,0.100,22579.000,0.200,846.000,0.300,405.000,0.500,507.000,1.000,196.000,5.000,0
"04/04/08","16:03:58",24314.000,"cc",28329.205,6.00,6,0.100,22325.000,0.200,823.000,0.300,431.000,0.500,530.000,1.000,205.000,5.000,0
"04/04/08","16:04:04",24479.000,"cc",28277.822,6.00,6,0.100,22380.000,0.200,866.000,0.300,485.000,0.500,558.000,1.000,190.000,5.000,0
"04/04/08","16:04:10",24344.000,"cc",28342.754,6.00,6,0.100,22421.000,0.200,820.000,0.300,433.000,0.500,496.000,1.000,174.000,5.000,0
"04/04/08","16:04:16",24333.000,"cc",28270.785,6.00,6,0.100,22349.000,0.200,877.000,0.300,424.000,0.500,498.000,1.000,185.000,5.000,0
"04/04/08","16:04:22",24341.000,"cc",28310.338,6.00,6,0.100,22371.000,0.200,860.000,0.300,410.000,0.500,494.000,1.000,206.000,5.000,0
"04/04/08","16:04:28",24340.000,"cc",28379.672,6.00,6,0.100,22385.000,0.200,843.000,0.300,424.000,0.500,502.000,1.000,186.000,5.000,0
"04/04/08","16:04:34",24567.000,"cc",28309.525,6.00,6,0.100,22493.000,0.200,896.000,0.300,468.000,0.500,527.000,1.000,183.000,5.000,0
"04/04/08","16:04:40",24265.000,"cc",28337.250,6.00,6,0.100,22159.000,0.200,898.000,0.300,446.000,0.500,532.000,1.000,230.000,5.000,0
"04/04/08","16:04:46",24416.000,"cc",28236.172,6.00,6,0.100,22369.000,0.200,854.000,0.300,433.000,0.500,539.000,1.000,221.000,5.000,0
"04/04/08","16:04:52",24475.000,"cc",28327.076,6.00,6,0.100,22368.000,0.200,818.000,0.300,469.000,0.500,605.000,1.000,215.000,5.000,0
"04/04/08","16:04:58",24570.000,"cc",28363.885,6.00,6,0.100,22407.000,0.200,884.000,0.300,456.000,0.500,625.000,1.000,198.000,5.000,0
"04/04/08","16:05:04",24511.000,"cc",28259.164,6.00,6,0.100,22499.000,0.200,825.000,0.300,414.000,0.500,539.000,1.000,234.000,5.000,0
"04/04/08","16:05:10",24568.000,"cc",28280.162,6.00,6,0.100,22486.000,0.200,888.000,0.300,435.000,0.500,540.000,1.000,219.000,5.000,0
"04/04/08","16:05:16",24928.000,"cc",28298.203,6.00,6,0.100,22792.000,0.200,882.000,0.300,475.000,0.500,577.000,1.000,202.000,5.000,0
"04/04/08","16:05:22",24886.000,"cc",28279.928,6.00,6,0.100,22684.000,0.200,883.000,0.300,490.000,0.500,625.000,1.000,204.000,5.000,0
"04/04/08","16:05:28",24909.000,"cc",28363.074,6.00,6,0.100,22787.000,0.200,886.000,0.300,466.000,0.500,557.000,1.000,213.000,5.000,0
"04/04/08","16:05:34",25267.000,"cc",28371.859,6.00,6,0.100,23000.000,0.200,935.000,0.300,487.000,0.500,614.000,1.000,231.000,5.000,0
"04/04/08","16:05:40",25228.000,"cc",28294.352,6.00,6,0.100,22937.000,0.200,936.000,0.300,513.000,0.500,628.000,1.000,214.000,5.000,0
"04/04/08","16:05:46",24907.000,"cc",28272.303,6.00,6,0.100,22665.000,0.200,911.000,0.300,468.000,0.500,651.000,1.000,212.000,5.000,0
"04/04/08","16:05:52",25348.000,"cc",28326.754,6.00,6,0.100,22980.000,0.200,978.000,0.300,530.000,0.500,616.000,1.000,244.000,5.000,0
"04/04/08","16:05:58",25435.000,"cc",28322.203,6.00,6,0.100,23102.000,0.200,942.000,0.300,540.000,0.500,629.000,1.000,222.000,5.000,0
"04/04/08","16:06:04",25390.000,"cc",28287.760,6.00,6,0.100,23149.000,0.200,908.000,0.300,495.000,0.500,589.000,1.000,249.000,5.000,0
"04/04/08","16:06:10",25167.000,"cc",28349.555,6.00,6,0.100,23017.000,0.200,860.000,0.300,491.000,0.500,586.000,1.000,213.000,5.000,0
"04/04/08","16:06:16",24889.000,"cc",28278.648,6.00,6,0.100,22652.000,0.200,925.000,0.300,493.000,0.500,587.000,1.000,232.000,5.000,0
"04/04/08","16:06:22",25020.000,"cc",28382.197,6.00,6,0.100,22813.000,0.200,933.000,0.300,478.000,0.500,582.000,1.000,214.000,5.000,0
"04/04/08","16:06:28",24805.000,"cc",28374.391,6.00,6,0.100,22622.000,0.200,923.000,0.300,465.000,0.500,575.000,1.000,220.000,5.000,0
"04/04/08","16:06:34",24861.000,"cc",28264.252,6.00,6,0.100,22655.000,0.200,890.000,0.300,498.000,0.500,585.000,1.000,233.000,5.000,0
"04/04/08","16:06:40",24665.000,"cc",28287.598,6.00,6,0.100,22544.000,0.200,864.000,0.300,467.000,0.500,588.000,1.000,202.000,5.000,0
"04/04/08","16:06:46",24785.000,"cc",28280.631,6.00,6,0.100,22618.000,0.200,886.000,0.300,475.000,0.500,586.000,1.000,220.000,5.000,0
"04/04/08","16:06:52",24708.000,"cc",28293.252,6.00,6,0.100,22608.000,0.200,877.000,0.300,473.000,0.500,548.000,1.000,202.000,5.000,0
"04/04/08","16:06:58",25055.000,"cc",28329.193,6.00,6,0.100,22768.000,0.200,916.000,0.300,484.000,0.500,645.000,1.000,242.000,5.000,0
"04/04/08","16:07:04",24796.000,"cc",28334.941,6.00,6,0.100,22617.000,0.200,907.000,0.300,465.000,0.500,588.000,1.000,219.000,5.000,0
"04/04/08","16:07:10",25157.000,"cc",28366.188,6.00,6,0.100,22823.000,0.200,964.000,0.300,516.000,0.500,618.000,1.000,236.000,5.000,0
"04/04/08","16:07:16",24795.000,"cc",28342.344,6.00,6,0.100,22607.000,0.200,883.000,0.300,498.000,0.500,590.000,1.000,217.000,5.000,0
"04/04/08","16:07:22",24453.000,"cc",28303.412,6.00,6,0.100,22446.000,0.200,804.000,0.300,453.000,0.500,547.000,1.000,203.000,5.000,0
"04/04/08","16:07:28",24550.000,"cc",28337.231,6.00,6,0.100,22409.000,0.200,933.000,0.300,417.000,0.500,572.000,1.000,219.000,5.000,0
"04/04/08","16:07:34",24743.000,"cc",28299.369,6.00,6,0.100,22404.000,0.200,973.000,0.300,511.000,0.500,619.000,1.000,236.000,5.000,0
"04/04/08","16:07:40",24624.000,"cc",28284.928,6.00,6,0.100,22413.000,0.200,932.000,0.300,478.000,0.500,560.000,1.000,241.000,5.000,0
"04/04/08","16:07:46",24511.000,"cc",28258.816,6.00,6,0.100,22414.000,0.200,877.000,0.300,451.000,0.500,554.000,1.000,215.000,5.000,0
"04/04/08","16:07:52",24965.000,"cc",28325.250,6.00,6,0.100,22779.000,0.200,900.000,0.300,490.000,0.500,581.000,1.000,215.000,5.000,0
"04/04/08","16:07:58",24941.000,"cc",28367.039,6.00,6,0.100,22690.000,0.200,939.000,0.300,475.000,0.500,610.000,1.000,227.000,5.000,0
"04/04/08","16:08:04",24910.000,"cc",28272.656,6.00,6,0.100,22698.000,0.200,905.000,0.300,477.000,0.500,591.000,1.000,239.000,5.000,0
"04/04/08","16:08:10",24966.000,"cc",28355.561,6.00,6,0.100,22569.000,0.200,992.000,0.300,495.000,0.500,657.000,1.000,253.000,5.000,0
"04/04/08","16:08:16",25513.000,"cc",28297.270,6.00,6,0.100,23009.000,0.200,1010.000,0.300,571.000,0.500,654.000,1.000,269.000,5.000,0
"04/04/08","16:08:22",25311.000,"cc",28345.443,6.00,6,0.100,22942.000,0.200,965.000,0.300,523.000,0.500,626.000,1.000,255.000,5.000,0
"04/04/08","16:08:28",24696.000,"cc",28367.301,6.00,6,0.100,22355.000,0.200,943.000,0.300,523.000,0.500,613.000,1.000,262.000,5.000,0
"04/04/08","16:08:34",24743.000,"cc",28307.822,6.00,6,0.100,22503.000,0.200,896.000,0.300,488.000,0.500,595.000,1.000,261.000,5.000,0
"04/04/08","16:08:40",24562.000,"cc",28233.086,6.00,6,0.100,22289.000,0.200,903.000,0.300,512.000,0.500,628.000,1.000,230.000,5.000,0
"04/04/08","16:08:46",25045.000,"cc",28264.502,6.00,6,0.100,22693.000,0.200,938.000,0.300,522.000,0.500,631.000,1.000,261.000,5.000,0
"04/04/08","16:08:52",24864.000,"cc",28324.584,6.00,6,0.100,22473.000,0.200,985.000,0.300,547.000,0.500,646.000,1.000,213.000,5.000,0
"04/04/08","16:08:58",24743.000,"cc",28393.531,6.00,6,0.100,22420.000,0.200,931.000,0.300,490.000,0.500,644.000,1.000,258.000,5.000,0
"04/04/08","16:09:04",24604.000,"cc",28269.596,6.00,6,0.100,22338.000,0.200,898.000,0.300,491.000,0.500,632.000,1.000,245.000,5.000,0
"04/04/08","16:09:10",24766.000,"cc",28286.270,6.00,6,0.100,22448.000,0.200,914.000,0.300,524.000,0.500,636.000,1.000,244.000,5.000,0
"04/04/08","16:09:16",24595.000,"cc",28308.037,6.00,6,0.100,22290.000,0.200,944.000,0.300,506.000,0.500,584.000,1.000,271.000,5.000,0
"04/04/08","16:09:22",24701.000,"cc",28298.076,6.00,6,0.100,22414.000,0.200,924.000,0.300,497.000,0.500,643.000,1.000,223.000,5.000,0
"04/04/08","16:09:28",24603.000,"cc",28348.260,6.00,6,0.100,22391.000,0.200,957.000,0.300,515.000,0.500,522.000,1.000,218.000,5.000,0
"04/04/08","16:09:34",24257.000,"cc",28315.789,6.00,6,0.100,22116.000,0.200,873.000,0.300,482.000,0.500,565.000,1.000,221.000,5.000,0
"04/04/08","16:09:40",24831.000,"cc",28314.873,6.00,6,0.100,22388.000,0.200,974.000,0.300,532.000,0.500,663.000,1.000,274.000,5.000,0
"04/04/08","16:09:46",25551.000,"cc",28324.830,6.00,6,0.100,22924.000,0.200,1096.000,0.300,561.000,0.500,721.000,1.000,249.000,5.000,0
"04/04/08","16:09:52",25233.000,"cc",28285.260,6.00,6,0.100,22705.000,0.200,1039.000,0.300,571.000,0.500,670.000,1.000,248.000,5.000,0
"04/04/08","16:09:58",24952.000,"cc",28371.953,6.00,6,0.100,22601.000,0.200,959.000,0.300,510.000,0.500,639.000,1.000,243.000,5.000,0
"04/04/08","16:10:04",25177.000,"cc",28349.717,6.00,6,0.100,22784.000,0.200,973.000,0.300,515.000,0.500,645.000,1.000,260.000,5.000,0
"04/04/08","16:10:10",25089.000,"cc",28301.104,6.00,6,0.100,22595.000,0.200,1084.000,0.300,519.000,0.500,649.000,1.000,242.000,5.000,0
"04/04/08","16:10:16",24993.000,"cc",28348.533,6.00,6,0.100,22582.000,0.200,990.000,0.300,520.000,0.500,649.000,1.000,252.000,5.000,0
"04/04/08","16:10:22",25207.000,"cc",28290.172,6.00,6,0.100,22754.000,0.200,1004.000,0.300,536.000,0.500,689.000,1.000,224.000,5.000,0
"04/04/08","16:10:28",24470.000,"cc",28335.313,6.00,6,0.100,22155.000,0.200,954.000,0.300,482.000,0.500,628.000,1.000,251.000,5.000,0
"04/04/08","16:10:34",24862.000,"cc",28322.154,6.00,6,0.100,22549.000,0.200,998.000,0.300,494.000,0.500,601.000,1.000,220.000,5.000,0
"04/04/08","16:10:40",24703.000,"cc",28225.752,6.00,6,0.100,22255.000,0.200,1038.000,0.300,512.000,0.500,666.000,1.000,232.000,5.000,0
"04/04/08","16:10:46",24709.000,"cc",28347.545,6.00,6,0.100,22346.000,0.200,972.000,0.300,511.000,0.500,645.000,1.000,235.000,5.000,0
"04/04/08","16:10:52",24895.000,"cc",28357.887,6.00,6,0.100,22410.000,0.200,1031.000,0.300,513.000,0.500,699.000,1.000,241.000,5.000,1.000
"04/04/08","16:10:58",24826.000,"cc",28291.475,6.00,6,0.100,22371.000,0.200,1013.000,0.300,502.000,0.500,672.000,1.000,268.000,5.000,0
"04/04/08","16:11:04",25011.000,"cc",28323.219,6.00,6,0.100,22551.000,0.200,1064.000,0.300,516.000,0.500,620.000,1.000,260.000,5.000,0
"04/04/08","16:11:10",25002.000,"cc",28310.010,6.00,6,0.100,22586.000,0.200,1005.000,0.300,525.000,0.500,641.000,1.000,245.000,5.000,0
"04/04/08","16:11:16",25074.000,"cc",28319.770,6.00,6,0.100,22553.000,0.200,994.000,0.300,582.000,0.500,684.000,1.000,261.000,5.000,0
"04/04/08","16:11:22",25036.000,"cc",28268.252,6.00,6,0.100,22597.000,0.200,974.000,0.300,576.000,0.500,664.000,1.000,225.000,5.000,0
"04/04/08","16:11:28",24860.000,"cc",28412.090,6.00,6,0.100,22423.000,0.200,1004.000,0.300,561.000,0.500,628.000,1.000,244.000,5.000,0
"04/04/08","16:11:34",24857.000,"cc",28341.996,6.00,6,0.100,22461.000,0.200,964.000,0.300,539.000,0.500,623.000,1.000,270.000,5.000,0
"04/04/08","16:11:40",24932.000,"cc",28314.111,6.00,6,0.100,22534.000,0.200,996.000,0.300,535.000,0.500,634.000,1.000,233.000,5.000,0
"04/04/08","16:11:46",24645.000,"cc",28347.803,6.00,6,0.100,22319.000,0.200,940.000,0.300,556.000,0.500,597.000,1.000,233.000,5.000,0
"04/04/08","16:11:52",24297.000,"cc",28326.795,6.00,6,0.100,22112.000,0.200,901.000,0.300,461.000,0.500,601.000,1.000,222.000,5.000,0
"04/04/08","16:11:58",24879.000,"cc",28271.434,6.00,6,0.100,22529.000,0.200,952.000,0.300,520.000,0.500,649.000,1.000,229.000,5.000,0
"04/04/08","16:12:04",24939.000,"cc",28288.992,6.00,6,0.100,22596.000,0.200,1025.000,0.300,479.000,0.500,603.000,1.000,236.000,5.000,0
"04/04/08","16:12:10",24665.000,"cc",28319.203,6.00,6,0.100,22292.000,0.200,1027.000,0.300,490.000,0.500,634.000,1.000,222.000,5.000,0
"04/04/08","16:12:16",24910.000,"cc",28249.400,6.00,6,0.100,22547.000,0.200,938.000,0.300,527.000,0.500,657.000,1.000,241.000,5.000,0
"04/04/08","16:12:22",24835.000,"cc",28345.772,6.00,6,0.100,22468.000,0.200,972.000,0.300,568.000,0.500,595.000,1.000,232.000,5.000,0
"04/04/08","16:12:28",25126.000,"cc",28328.539,6.00,6,0.100,22810.000,0.200,967.000,0.300,505.000,0.500,626.000,1.000,218.000,5.000,0
"04/04/08","16:12:34",25060.000,"cc",28350.518,6.00,6,0.100,22761.000,0.200,938.000,0.300,515.000,0.500,633.000,1.000,213.000,5.000,0
"04/04/08","16:12:40",25175.000,"cc",28336.522,6.00,6,0.100,22812.000,0.200,1008.000,0.300,508.000,0.500,610.000,1.000,237.000,5.000,0
"04/04/08","16:12:46",25109.000,"cc",28366.459,6.00,6,0.100,22733.000,0.200,971.000,0.300,542.000,0.500,630.000,1.000,233.000,5.000,0
"04/04/08","16:12:52",24812.000,"cc",28275.297,6.00,6,0.100,22388.000,0.200,1042.000,0.300,535.000,0.500,613.000,1.000,234.000,5.000,0
"04/04/08","16:12:58",25238.000,"cc",28284.350,6.00,6,0.100,22863.000,0.200,960.000,0.300,548.000,0.500,610.000,1.000,257.000,5.000,0
"04/04/08","16:13:04",25455.000,"cc",28313.922,6.00,6,0.100,22929.000,0.200,1050.000,0.300,543.000,0.500,684.000,1.000,249.000,5.000,0
"04/04/08","16:13:10",25441.000,"cc",28389.891,6.00,6,0.100,22941.000,0.200,957.000,0.300,597.000,0.500,694.000,1.000,252.000,5.000,0
"04/04/08","16:13:16",25581.000,"cc",28289.578,6.00,6,0.100,22997.000,0.200,1045.000,0.300,577.000,0.500,709.000,1.000,253.000,5.000,0
"04/04/08","16:13:22",25337.000,"cc",28308.924,6.00,6,0.100,22695.000,0.200,1044.000,0.300,595.000,0.500,754.000,1.000,249.000,5.000,0
"04/04/08","16:13:28",25564.000,"cc",28282.094,6.00,6,0.100,23093.000,0.200,998.000,0.300,551.000,0.500,670.000,1.000,252.000,5.000,0
"04/04/08","16:13:34",25515.000,"cc",28317.955,6.00,6,0.100,22936.000,0.200,1054.000,0.300,567.000,0.500,694.000,1.000,264.000,5.000,0
"04/04/08","16:13:40",25716.000,"cc",28331.664,6.00,6,0.100,23203.000,0.200,1002.000,0.300,570.000,0.500,697.000,1.000,244.000,5.000,0
"04/04/08","16:13:46",25421.000,"cc",28280.508,6.00,6,0.100,23062.000,0.200,965.000,0.300,510.000,0.500,662.000,1.000,222.000,5.000,0
"04/04/08","16:13:52",25163.000,"cc",28327.049,6.00,6,0.100,22780.000,0.200,1004.000,0.300,535.000,0.500,600.000,1.000,244.000,5.000,0
"04/04/08","16:13:58",25220.000,"cc",28339.871,6.00,6,0.100,22841.000,0.200,990.000,0.300,486.000,0.500,664.000,1.000,239.000,5.000,0
"04/04/08","16:14:04",25344.000,"cc",28300.398,6.00,6,0.100,22959.000,0.200,1011.000,0.300,493.000,0.500,657.000,1.000,224.000,5.000,0
"04/04/08","16:14:10",25849.000,"cc",28300.506,6.00,6,0.100,23229.000,0.200,1077.000,0.300,599.000,0.500,693.000,1.000,251.000,5.000,0
"04/04/08","16:14:16",25820.000,"cc",28314.508,6.00,6,0.100,23115.000,0.200,1078.000,0.300,600.000,0.500,743.000,1.000,284.000,5.000,0
"04/04/08","16:14:22",25390.000,"cc",28346.100,6.00,6,0.100,22993.000,0.200,906.000,0.300,548.000,0.500,685.000,1.000,258.000,5.000,0
"04/04/08","16:14:28",25439.000,"cc",28376.010,6.00,6,0.100,23006.000,0.200,1011.000,0.300,546.000,0.500,612.000,1.000,264.000,5.000,0
"04/04/08","16:14:34",26054.000,"cc",28300.990,6.00,6,0.100,23530.000,0.200,1042.000,0.300,526.000,0.500,671.000,1.000,285.000,5.000,0
"04/04/08","16:14:40",25999.000,"cc",28304.059,6.00,6,0.100,23494.000,0.200,1086.000,0.300,511.000,0.500,678.000,1.000,230.000,5.000,0
"04/04/08","16:14:46",25524.000,"cc",28353.414,6.00,6,0.100,23103.000,0.200,984.000,0.300,537.000,0.500,645.000,1.000,255.000,5.000,0
"04/04/08","16:14:52",25192.000,"cc",28307.908,6.00,6,0.100,22802.000,0.200,978.000,0.300,550.000,0.500,642.000,1.000,220.000,5.000,0
"04/04/08","16:14:58",25387.000,"cc",28237.682,6.00,6,0.100,22817.000,0.200,1032.000,0.300,580.000,0.500,706.000,1.000,252.000,5.000,0
"04/04/08","16:15:04",25363.000,"cc",28228.219,6.00,6,0.100,22842.000,0.200,1010.000,0.300,557.000,0.500,702.000,1.000,252.000,5.000,0
"04/04/08","16:15:10",25443.000,"cc",28334.473,6.00,6,0.100,23009.000,0.200,1021.000,0.300,500.000,0.500,693.000,1.000,220.000,5.000,0
"04/04/08","16:15:16",25246.000,"cc",28368.551,6.00,6,0.100,22758.000,0.200,1053.000,0.300,520.000,0.500,662.000,1.000,253.000,5.000,0
"04/04/08","16:15:22",25746.000,"cc",28275.660,6.00,6,0.100,23249.000,0.200,1003.000,0.300,596.000,0.500,663.000,1.000,235.000,5.000,0
"04/04/08","16:15:28",25819.000,"cc",28347.504,6.00,6,0.100,23185.000,0.200,1067.000,0.300,618.000,0.500,689.000,1.000,260.000,5.000,0
"04/04/08","16:15:34",25449.000,"cc",28329.168,6.00,6,0.100,23005.000,0.200,1041.000,0.300,523.000,0.500,634.000,1.000,246.000,5.000,0
"04/04/08","16:15:40",25534.000,"cc",28288.797,6.00,6,0.100,22986.000,0.200,1026.000,0.300,580.000,0.500,707.000,1.000,235.000,5.000,0
"04/04/08","16:15:46",25744.000,"cc",28321.648,6.00,6,0.100,23125.000,0.200,1081.000,0.300,579.000,0.500,690.000,1.000,269.000,5.000,0
"04/04/08","16:15:52",25673.000,"cc",28325.738,6.00,6,0.100,23112.000,0.200,1058.000,0.300,554.000,0.500,715.000,1.000,234.000,5.000,0
"04/04/08","16:15:58",25729.000,"cc",28301.217,6.00,6,0.100,23195.000,0.200,1050.000,0.300,550.000,0.500,680.000,1.000,254.000,5.000,0
"04/04/08","16:16:04",25336.000,"cc",28327.695,6.00,6,0.100,22809.000,0.200,1006.000,0.300,566.000,0.500,699.000,1.000,256.000,5.000,0
"04/04/08","16:16:10",25328.000,"cc",28305.662,6.00,6,0.100,22811.000,0.200,1062.000,0.300,521.000,0.500,688.000,1.000,246.000,5.000,0
"04/04/08","16:16:16",25569.000,"cc",28282.279,6.00,6,0.100,23022.000,0.200,1040.000,0.300,620.000,0.500,633.000,1.000,254.000,5.000,0
"04/04/08","16:16:22",25252.000,"cc",28376.373,6.00,6,0.100,22945.000,0.200,999.000,0.300,470.000,0.500,615.000,1.000,223.000,5.000,0
"04/04/08","16:16:28",25177.000,"cc",28313.393,6.00,6,0.100,22875.000,0.200,967.000,0.300,500.000,0.500,621.000,1.000,214.000,5.000,0
"04/04/08","16:16:34",25504.000,"cc",28317.406,6.00,6,0.100,23077.000,0.200,983.000,0.300,540.000,0.500,635.000,1.000,269.000,5.000,0
"04/04/08","16:16:40",25259.000,"cc",28306.147,6.00,6,0.100,22664.000,0.200,1069.000,0.300,560.000,0.500,710.000,1.000,256.000,5.000,0
"04/04/08","16:16:46",25019.000,"cc",28340.856,6.00,6,0.100,22688.000,0.200,980.000,0.300,513.000,0.500,600.000,1.000,238.000,5.000,0